Location: Ch?enovice
(49.7164°N, 15.2160°E)
Time: 20:41:05
(UTC+00:00)

CZ-2C R/B - Pass Details

Date: 23 May 2024
Orbit: 784 x 868 km, 98.3° (Epoch: 20 June)

Event Time Altitude Azimuth Distance (km) Brightness Sun altitude
Exits shadow 00:47:48 11° 158° (SSE) 2,305 4.6 -15.4°
Maximum altitude 00:52:51 78° 73° (ENE) 808 2.7 -15.0°
Drops below altitude 10° 00:58:04 10° 348° (NNW) 2,364 5.8 -14.6°
Sets 01:00:24 0° 347° (NNW) 3,304 6.6 -14.4°
